Date,TemperatureHighF,TemperatureAvgF,TemperatureLowF,DewpointHighF,DewpointAvgF,DewpointLowF,HumidityHigh,HumidityAvg,HumidityLow,PressureMaxIn,PressureMinIn,WindSpeedMaxMPH,WindSpeedAvgMPH,GustSpeedMaxMPH,PrecipitationSumIn
2013-1-1,33.5,25.6,18.2,19.0,14.0,8.0,75,62,44,30.34,30.21,8,2,18,0.00
2013-1-2,27.6,22.8,14.3,19.0,14.2,9.0,81,70,55,30.52,30.25,13,4,19,0.00
2013-1-3,38.8,27.1,9.4,16.0,8.4,4.0,80,49,24,30.52,30.35,3,0,9,0.00
2013-1-4,49.3,39.3,33.7,13.0,7.1,-2.0,34,26,19,30.34,30.12,9,1,10,0.00
2013-1-5,37.2,33.2,29.1,19.0,15.3,9.0,59,48,34,30.36,30.15,15,3,19,0.00
2013-1-6,51.9,37.8,25.1,16.0,9.9,5.0,52,33,18,30.35,29.98,8,2,14,0.00
2013-1-7,43.5,35.1,27.8,23.0,19.8,16.0,69,55,38,30.06,29.79,5,1,9,0.00
2013-1-8,41.5,36.7,28.2,26.0,19.3,13.0,74,50,36,30.25,29.77,12,4,23,0.00
2013-1-9,54.1,44.5,29.0,25.0,18.8,12.0,55,37,22,30.25,29.90,5,1,10,0.00
2013-1-10,55.3,49.9,38.0,19.0,13.8,9.0,46,24,17,29.89,29.43,10,2,16,0.00
2013-1-11,36.1,16.0,4.1,24.0,11.8,-1.0,91,84,53,30.05,29.41,11,3,19,0.14
2013-1-12,10.7,7.1,4.1,6.0,1.8,-2.0,82,79,75,30.47,30.05,13,2,17,0.01
2013-1-13,14.2,9.1,5.5,6.0,1.7,-1.0,82,72,62,30.50,30.43,7,1,11,0.00
2013-1-14,17.5,12.5,7.7,2.0,-0.7,-5.0,70,56,46,30.50,30.36,6,3,11,0.00
2013-1-15,38.4,28.2,9.6,29.0,16.7,-6.0,76,63,41,30.36,30.11,15,4,22,0.00
2013-1-16,42.8,39.0,35.4,27.0,20.3,18.0,68,48,38,30.39,30.11,18,5,26,0.00
2013-1-17,46.2,39.2,34.4,22.0,18.8,14.0,55,45,32,30.47,30.13,7,2,12,0.00
2013-1-18,52.8,46.4,41.6,15.0,12.5,9.0,33,26,18,30.12,29.94,12,3,16,0.00
2013-1-19,44.0,34.7,22.0,23.0,18.1,14.0,85,54,32,30.31,29.98,15,2,19,0.00
2013-1-20,37.7,19.8,9.7,22.0,12.7,6.0,89,76,38,30.56,30.18,7,2,16,0.00
2013-1-21,17.1,12.4,8.3,12.0,8.2,4.0,87,83,78,30.55,30.39,1,0,4,0.00
2013-1-22,48.0,35.2,10.3,21.0,12.6,5.0,91,43,20,30.39,30.22,9,1,15,0.00
2013-1-23,37.5,21.0,11.4,15.0,11.1,5.0,88,69,26,30.42,30.20,4,0,11,0.00
2013-1-24,57.8,37.1,13.4,26.0,17.8,10.0,93,52,17,30.33,30.11,10,2,19,0.00
2013-1-25,46.0,36.9,29.6,24.0,21.2,18.0,68,54,40,30.24,30.11,2,0,5,0.00
2013-1-26,49.8,41.9,35.4,25.0,23.7,21.0,62,49,36,30.12,29.85,5,1,14,0.00
2013-1-27,52.4,40.3,27.7,32.0,25.8,20.0,90,59,43,29.84,29.69,2,0,7,0.00
2013-1-28,29.8,27.3,25.1,27.0,24.8,22.0,92,90,83,29.96,29.82,4,1,9,0.03
2013-1-29,31.8,23.1,9.8,22.0,13.0,1.0,86,66,46,30.19,29.88,12,3,20,0.00
2013-1-30,21.9,14.6,6.9,14.0,7.8,0.0,85,75,61,30.19,30.03,2,0,8,0.00
2013-1-31,30.9,10.9,5.2,21.0,5.0,-2.0,89,77,60,30.49,30.16,9,1,17,0.00
2013-2-1,41.5,36.0,31.6,28.0,25.2,22.0,77,65,54,30.39,30.18,11,3,17,0.00
2013-2-2,41.5,35.4,29.8,27.0,20.7,17.0,80,56,38,30.35,30.23,20,6,28,0.00
2013-2-3,52.0,40.6,30.4,22.0,17.0,9.0,67,41,18,30.32,29.93,11,3,17,0.00
2013-2-4,46.1,38.5,31.3,22.0,19.4,17.0,60,47,34,30.01,29.87,9,2,19,0.00
2013-2-5,44.5,39.2,34.3,27.0,23.5,21.0,62,54,47,30.08,29.87,8,1,12,0.00
2013-2-6,48.5,40.6,31.0,27.0,23.2,20.0,72,51,37,30.14,29.82,7,2,13,0.00
2013-2-7,46.0,36.8,32.5,20.0,16.8,10.0,55,45,25,30.23,30.09,6,2,10,0.00
2013-2-8,47.2,35.9,27.8,22.0,17.6,11.0,68,49,27,30.09,29.93,4,1,11,0.00
2013-2-9,36.9,31.1,25.7,22.0,17.7,15.0,70,58,46,29.94,29.81,13,4,19,0.00
2013-2-10,26.6,23.1,15.7,22.0,16.4,7.0,87,76,62,30.22,29.79,16,5,28,0.00
2013-2-11,29.4,21.0,14.4,16.0,8.9,2.0,72,60,38,30.31,30.19,4,1,11,0.00
2013-2-12,43.3,34.0,25.8,19.0,13.4,2.0,57,43,35,30.20,30.04,8,3,16,0.00
2013-2-13,43.3,35.8,29.2,29.0,21.7,16.0,86,58,41,30.09,29.87,13,5,24,0.00
2013-2-14,28.9,23.5,15.4,19.0,13.2,5.0,83,65,48,30.51,30.09,17,4,29,0.00
2013-2-15,28.6,23.0,15.1,18.0,9.2,3.0,81,56,40,30.61,30.31,10,2,19,0.00
2013-2-16,49.8,41.3,28.8,25.0,22.9,18.0,67,49,36,30.31,29.90,11,3,18,0.00
2013-2-17,51.8,39.3,29.7,26.0,19.8,16.0,66,47,26,29.89,29.57,11,2,19,0.00
2013-2-18,29.7,24.3,12.9,19.0,12.3,8.0,84,61,49,30.34,29.83,20,5,23,0.00
2013-2-19,23.4,16.4,10.6,15.0,10.7,6.0,86,78,69,30.40,30.26,4,1,12,0.00
2013-2-20,30.6,20.5,15.0,17.0,13.1,9.0,87,73,51,30.26,30.07,5,1,11,0.00
2013-2-21,25.3,20.5,17.4,20.0,16.8,14.0,89,86,78,30.18,30.11,6,0,6,0.01
2013-2-22,33.9,25.0,16.2,26.0,16.7,12.0,90,73,43,30.18,29.97,5,0,10,0.00
2013-2-23,43.0,32.7,22.7,24.0,13.0,6.0,73,45,31,29.97,29.79,3,0,7,0.00
2013-2-24,32.0,28.3,24.2,27.0,21.5,15.0,91,76,64,30.28,29.94,10,3,16,0.01
2013-2-25,47.1,32.4,19.9,18.0,8.4,3.0,67,39,18,30.27,29.95,4,1,8,0.00
2013-2-26,36.2,31.6,28.1,26.0,19.5,11.0,76,62,43,30.24,29.94,12,4,26,0.00
2013-2-27,36.8,28.9,21.2,18.0,14.9,13.0,79,57,39,30.40,30.25,12,2,16,0.00
2013-2-28,36.2,29.7,21.6,25.0,19.3,12.0,81,66,52,30.42,30.33,8,1,12,0.00
2013-3-1,42.0,34.6,26.9,30.0,16.5,11.0,71,49,32,30.46,30.32,8,1,13,0.00
2013-3-2,57.1,47.7,42.1,30.0,27.2,24.0,63,46,32,30.32,29.93,10,2,13,0.00
2013-3-3,54.5,46.7,30.4,28.0,26.1,19.0,77,46,34,29.93,29.53,10,2,29,0.00
2013-3-4,30.1,23.0,16.4,19.0,7.7,1.0,68,53,38,30.39,29.70,18,6,35,0.00
2013-3-5,30.7,23.2,17.2,11.0,9.3,8.0,67,56,42,30.55,30.43,4,1,7,0.00
2013-3-6,44.4,30.9,16.7,22.0,15.8,8.0,70,55,36,30.43,29.98,5,1,7,0.00
2013-3-7,52.5,42.5,33.8,26.0,23.2,21.0,71,48,33,30.20,29.96,6,1,10,0.00
2013-3-8,41.5,33.5,26.6,28.0,25.3,23.0,86,72,56,30.20,29.96,4,0,6,0.00
2013-3-9,37.6,31.2,23.9,28.0,20.9,11.0,92,68,37,30.27,29.89,17,5,29,0.00
2013-3-10,39.6,28.8,18.3,16.0,7.6,-6.0,75,45,17,30.38,30.17,10,2,20,0.00
2013-3-11,43.2,36.2,27.4,25.0,17.3,10.0,65,47,30,30.23,30.03,12,4,26,0.00
2013-3-12,40.0,28.4,21.1,11.0,3.6,0.0,52,36,19,30.44,30.23,12,4,22,0.00
2013-3-13,60.7,47.4,27.8,27.0,20.6,5.0,48,35,26,30.38,30.16,11,2,16,0.00
2013-3-14,66.1,55.7,45.7,31.0,26.9,24.0,52,35,21,30.21,29.96,10,1,13,0.00
2013-3-15,63.7,53.9,33.0,28.0,25.4,22.0,77,35,21,29.99,29.77,21,3,22,0.00
2013-3-16,32.7,29.2,26.8,30.0,26.0,24.0,93,88,80,30.12,30.00,2,0,5,0.34
2013-3-17,47.4,32.3,24.1,38.0,25.6,14.0,94,78,51,30.06,29.53,12,3,24,0.00
2013-3-18,34.0,27.7,21.1,16.0,10.2,-3.0,62,49,21,30.14,29.89,12,3,27,0.00
2013-3-19,34.6,27.9,18.1,17.0,11.5,5.0,64,51,36,30.55,30.10,13,3,16,0.00
2013-3-20,44.8,30.9,15.7,21.0,12.8,6.0,67,49,31,30.54,29.96,5,1,10,0.00
2013-3-21,38.0,28.9,22.3,24.0,19.2,14.0,90,68,54,30.00,29.76,7,1,13,0.02
2013-3-22,37.0,27.3,19.6,26.0,22.2,16.0,91,82,58,30.23,29.98,7,1,14,0.26
2013-3-23,28.7,18.9,11.0,18.0,12.2,6.0,87,76,54,30.47,30.24,7,1,10,0.00
2013-3-24,20.2,14.0,8.3,11.0,5.7,3.0,87,70,52,30.59,30.41,14,3,18,0.00
2013-3-25,29.3,19.3,8.6,17.0,9.5,1.0,81,67,47,30.61,30.46,6,1,9,0.00
2013-3-26,45.5,31.2,16.3,22.0,14.4,7.0,79,52,27,30.45,30.20,4,1,9,0.00
2013-3-27,51.7,40.7,30.2,23.0,16.9,10.0,48,39,27,30.23,30.17,3,0,8,0.00
2013-3-28,57.0,47.0,34.1,31.0,24.6,18.0,65,43,25,30.17,30.12,5,1,8,0.00
2013-3-29,63.0,52.4,43.2,32.0,27.2,23.0,53,39,25,30.16,29.99,7,1,14,0.00
2013-3-30,51.5,43.6,35.7,38.0,31.3,26.0,88,63,39,30.21,30.05,14,3,24,0.11
2013-3-31,51.4,37.9,28.5,31.0,25.1,20.0,88,62,39,30.28,30.04,5,1,11,0.00
2013-4-1,48.5,36.1,26.8,26.0,22.7,18.0,89,61,39,30.32,30.26,6,1,7,0.00
2013-4-2,53.9,41.0,28.3,25.0,21.7,18.0,77,48,32,30.28,30.18,6,1,8,0.00
2013-4-3,65.5,50.4,36.5,35.0,26.6,20.0,67,43,19,30.18,30.00,12,2,15,0.00
2013-4-4,52.4,41.1,32.0,29.0,25.2,18.0,77,56,34,30.18,30.11,3,1,10,0.00
2013-4-5,64.5,48.2,33.0,37.0,29.3,18.0,68,50,30,30.09,29.64,11,1,15,0.00
2013-4-6,60.9,51.5,44.9,35.0,29.5,24.0,69,45,26,29.84,29.73,12,3,22,0.00
2013-4-7,56.2,47.7,40.6,45.0,36.3,27.0,90,67,40,29.79,29.61,6,1,10,0.13
2013-4-8,40.9,31.1,14.3,38.0,28.0,12.0,93,88,76,30.24,29.64,10,3,24,0.08
2013-4-9,14.4,11.8,9.1,12.0,8.8,6.0,89,88,86,30.66,30.24,12,5,21,0.14
2013-4-10,26.6,18.9,12.8,23.0,16.1,10.0,90,89,85,30.59,30.19,9,2,22,0.06
2013-4-11,33.8,24.7,15.1,28.0,21.2,12.0,92,86,79,30.19,30.01,6,1,10,0.00
2013-4-12,38.0,32.0,25.7,32.0,25.9,20.0,93,78,67,30.13,30.06,7,1,15,0.02
2013-4-13,43.8,36.0,24.3,35.0,29.0,18.0,94,76,64,30.09,29.49,3,0,6,0.00
2013-4-14,39.0,33.3,20.4,36.0,21.7,10.0,94,64,46,29.91,29.48,22,5,24,0.00
2013-4-15,32.1,25.2,17.7,21.0,14.8,8.0,83,66,46,30.32,29.89,10,2,16,0.00
2013-4-16,25.8,23.5,20.7,22.0,19.2,15.0,90,83,72,30.47,30.28,3,0,6,0.21
2013-4-17,26.2,23.3,20.3,22.0,20.1,16.0,91,87,82,30.47,30.37,6,1,12,0.06
2013-4-18,33.8,26.2,18.4,18.0,12.6,7.0,90,60,33,30.39,30.21,16,3,21,0.00
2013-4-19,35.3,32.4,30.2,30.0,27.7,17.0,92,83,55,30.21,30.11,11,1,22,0.02
2013-4-20,48.7,38.7,29.8,38.0,32.5,27.0,92,79,60,30.10,30.02,4,0,6,0.13
2013-4-21,46.1,38.0,30.8,37.0,33.4,29.0,94,84,64,30.23,30.02,5,2,11,0.25
2013-4-22,30.8,23.9,18.5,29.0,20.7,14.0,93,88,80,30.60,30.19,6,2,11,0.49
2013-4-23,33.3,25.3,15.6,23.0,17.3,11.0,83,72,57,30.59,30.33,5,1,8,0.00
2013-4-24,40.6,34.1,29.0,24.0,20.6,17.0,71,59,42,30.33,30.23,11,4,18,0.00
2013-4-25,61.5,48.8,29.1,23.0,19.2,-99.9,73,36,17,30.23,29.92,6,1,10,0.00
2013-4-26,66.4,54.4,42.5,31.0,25.8,20.0,46,34,25,30.16,30.02,6,1,10,0.00
2013-4-27,71.7,61.6,48.8,31.0,26.2,22.0,41,27,17,30.13,29.80,9,2,12,0.00
2013-4-28,62.9,55.9,44.0,43.0,33.2,24.0,90,46,24,29.93,29.71,10,2,23,0.02
2013-4-29,70.4,55.5,42.5,42.0,35.8,27.0,88,54,21,29.86,29.39,11,2,25,0.00
2013-4-30,49.3,40.1,30.5,33.0,24.8,14.0,92,59,28,30.25,29.57,11,3,20,0.04
2013-5-1,43.4,33.9,26.9,23.0,17.1,11.0,78,53,31,30.77,30.26,12,2,12,0.00
2013-5-2,49.5,38.9,29.9,27.0,18.5,11.0,67,45,28,30.79,30.50,5,1,11,0.00
2013-5-3,56.8,45.9,35.7,24.0,20.3,16.0,50,37,26,30.50,30.21,5,1,9,0.00
2013-5-4,53.0,43.5,31.4,21.0,16.8,12.0,58,36,23,30.38,30.26,7,1,12,0.00
2013-5-5,58.2,46.9,36.1,25.0,18.8,13.0,44,33,24,30.38,30.20,5,1,10,0.00
2013-5-6,66.8,53.7,39.8,30.0,26.0,22.0,51,36,24,30.21,30.01,5,1,9,0.00
2013-5-7,69.9,57.6,45.3,42.0,35.1,25.0,69,45,27,30.02,29.81,7,1,12,0.00
2013-5-8,66.8,59.1,51.7,43.0,37.7,35.0,64,46,32,30.09,29.87,5,2,16,0.00
2013-5-9,60.8,51.7,44.3,48.0,40.7,36.0,89,67,46,30.19,30.08,6,1,8,0.09
2013-5-10,69.1,54.6,43.7,46.0,38.1,27.0,84,58,22,30.36,30.14,12,2,23,0.03
2013-5-11,60.8,49.0,39.4,33.0,27.6,21.0,60,44,33,30.41,30.24,6,1,9,0.00
2013-5-12,72.8,59.2,41.1,40.0,34.2,26.0,60,41,27,30.25,29.97,6,1,9,0.00
2013-5-13,85.3,74.1,60.5,45.0,40.3,36.0,41,30,21,29.96,29.66,12,2,12,0.00
2013-5-14,75.8,70.1,58.3,48.0,39.9,32.0,45,34,22,29.82,29.59,11,2,21,0.00
2013-5-15,74.2,62.1,50.7,42.0,38.0,30.0,61,42,29,29.96,29.81,5,1,10,0.00
2013-5-16,74.4,62.1,52.1,55.0,48.0,41.0,89,62,42,29.84,29.65,6,1,16,0.08
2013-5-17,73.0,61.8,48.6,56.0,51.0,45.0,89,69,51,29.83,29.69,6,1,10,0.00
2013-5-18,69.8,58.0,50.5,55.0,50.1,45.0,91,75,59,29.78,29.68,8,2,15,0.25
2013-5-19,55.8,52.3,48.3,52.0,48.2,42.0,92,86,79,29.74,29.69,15,2,18,0.09
2013-5-20,52.9,48.0,42.0,42.0,40.4,39.0,91,75,63,29.91,29.62,19,7,42,0.01
2013-5-21,50.2,44.8,41.0,40.0,38.7,37.0,93,79,67,30.04,29.90,13,4,31,0.05
2013-5-22,50.4,46.2,41.5,44.0,41.5,38.0,93,84,76,30.25,30.01,7,2,16,0.00
2013-5-23,63.1,53.9,43.3,45.0,42.3,37.0,92,67,47,30.26,30.00,10,2,17,0.00
2013-5-24,77.5,62.5,52.8,54.0,49.6,40.0,85,65,26,29.98,29.81,8,3,14,0.00
2013-5-25,79.8,67.2,56.1,56.0,53.0,46.0,81,62,42,29.92,29.73,8,1,11,0.00
2013-5-26,72.1,59.8,49.6,58.0,54.7,48.0,96,84,58,29.89,29.70,5,1,10,0.03
2013-5-27,72.4,57.8,49.1,63.0,54.6,46.0,96,89,64,29.88,29.62,8,1,16,0.07
2013-5-28,72.4,59.8,47.6,51.0,43.6,35.0,87,57,30,29.77,29.60,6,1,12,0.00
2013-5-29,68.2,56.9,50.3,56.0,49.9,46.0,94,79,50,29.65,29.45,4,1,9,0.91
2013-5-30,60.4,52.9,49.4,52.0,44.8,38.0,95,75,54,29.52,29.34,14,5,25,0.05
2013-5-31,53.9,48.6,45.1,41.0,37.9,37.0,84,67,56,29.95,29.50,14,8,23,0.00
2013-6-1,60.8,51.0,42.6,40.0,36.8,32.0,83,60,37,30.22,29.96,18,5,25,0.00
2013-6-2,72.2,57.1,41.5,50.0,43.7,36.0,84,63,42,30.20,29.78,5,1,11,0.00
2013-6-3,69.8,58.6,48.8,53.0,46.8,38.0,90,66,46,29.91,29.54,6,1,9,0.00
2013-6-4,59.6,53.3,45.2,44.0,36.5,30.0,68,54,42,30.20,29.90,10,3,16,0.00
2013-6-5,58.2,49.7,42.1,42.0,38.6,34.0,75,66,52,30.25,30.18,7,2,16,0.00
2013-6-6,67.4,56.2,42.3,47.0,42.9,37.0,84,63,47,30.18,30.07,4,0,7,0.00
2013-6-7,78.8,64.7,49.2,53.0,47.5,42.0,90,56,34,30.09,29.63,10,2,14,0.19
2013-6-8,68.6,60.6,52.1,51.0,45.0,38.0,92,60,34,29.92,29.59,15,4,25,0.09
2013-6-9,75.5,64.2,52.5,51.0,45.4,37.0,74,52,36,29.94,29.74,5,1,11,0.00
2013-6-10,82.9,71.1,59.5,61.0,52.7,43.0,75,54,32,29.78,29.61,5,1,11,0.00
2013-6-11,71.1,63.9,54.6,62.0,56.5,50.0,93,77,63,29.88,29.72,5,1,18,0.12
2013-6-12,62.7,57.5,52.1,54.0,51.0,49.0,94,79,67,30.17,29.83,6,1,11,0.00
2013-6-13,71.1,61.2,49.1,56.0,51.2,46.0,91,71,56,30.17,29.82,7,2,14,0.00
2013-6-14,77.0,67.3,57.5,55.0,50.3,44.0,83,57,36,29.95,29.70,9,2,15,0.00
2013-6-15,73.7,64.1,57.0,48.0,42.6,36.0,64,47,30,30.00,29.93,5,1,10,0.00
2013-6-16,74.4,65.4,55.5,58.0,51.0,46.0,81,61,43,30.05,29.90,10,1,10,0.00
2013-6-17,69.9,60.6,55.3,57.0,51.2,47.0,92,72,48,30.08,30.03,4,1,8,0.20
2013-6-18,80.2,66.6,51.4,58.0,53.4,48.0,88,65,40,30.07,29.81,6,1,10,0.00
2013-6-19,81.9,70.9,58.0,62.0,55.7,47.0,73,60,43,29.81,29.55,6,2,15,0.00
2013-6-20,80.5,71.5,62.2,62.0,48.3,36.0,90,49,22,29.80,29.55,9,2,12,0.06
2013-6-21,68.4,62.0,58.1,64.0,58.4,53.0,96,88,73,29.93,29.73,10,2,16,0.38
2013-6-22,72.5,61.0,52.3,59.0,53.5,46.0,93,78,53,29.96,29.75,11,2,19,0.34
2013-6-23,73.7,62.9,48.5,52.0,47.3,39.0,90,59,33,29.90,29.77,5,1,9,0.00
2013-6-24,83.8,69.3,58.9,64.0,53.8,43.0,91,60,37,29.77,29.59,5,1,8,0.03
2013-6-25,80.0,72.8,63.5,54.0,47.6,40.0,66,42,29,29.76,29.54,10,2,20,0.00
2013-6-26,84.8,73.3,59.3,58.0,53.1,45.0,71,51,26,29.95,29.75,6,1,8,0.00
2013-6-27,85.4,74.1,64.5,58.0,52.8,49.0,62,48,35,30.07,29.94,6,2,13,0.00
2013-6-28,82.4,72.8,60.6,53.0,48.6,43.0,66,44,29,30.12,30.02,8,3,16,0.00
2013-6-29,77.0,68.4,60.3,54.0,49.0,42.0,71,52,32,30.10,30.03,8,2,15,0.00
2013-6-30,77.1,67.9,58.0,51.0,49.0,44.0,68,52,40,30.14,30.08,3,1,7,0.00
2013-7-1,77.2,67.2,57.3,54.0,51.3,45.0,81,58,42,30.17,30.11,4,1,10,0.00
2013-7-2,80.6,69.8,57.6,54.0,48.9,45.0,72,49,32,30.16,29.99,4,1,8,0.00
2013-7-3,88.7,76.2,62.4,51.0,46.7,44.0,59,37,23,29.99,29.73,6,1,8,0.00
2013-7-4,82.0,72.8,62.1,62.0,52.8,41.0,89,52,32,29.80,29.69,8,2,24,0.23
2013-7-5,83.4,71.9,63.7,63.0,57.0,51.0,91,62,36,29.76,29.63,5,1,11,0.09
2013-7-6,82.5,70.0,61.8,61.0,56.8,50.0,87,65,43,29.86,29.64,6,2,14,0.12
2013-7-7,84.1,70.4,59.4,61.0,57.3,51.0,90,65,40,29.99,29.83,9,1,16,0.05
2013-7-8,83.2,67.5,59.2,63.0,59.1,55.0,94,77,46,29.98,29.83,6,1,17,1.20
2013-7-9,80.7,70.0,56.3,57.0,53.3,49.0,85,57,41,30.11,29.92,6,1,9,0.00
2013-7-10,88.6,70.6,58.0,66.0,56.4,50.0,93,63,32,30.12,29.86,7,1,13,0.08
2013-7-11,94.4,80.4,69.2,67.0,58.5,53.0,70,49,29,29.92,29.61,10,1,17,0.00
2013-7-12,84.8,75.7,65.3,60.0,55.4,51.0,77,51,34,29.85,29.52,10,2,20,0.01
2013-7-13,89.2,76.1,63.1,65.0,60.0,53.0,73,58,41,29.89,29.80,6,1,10,0.00
2013-7-14,72.3,64.1,58.5,61.0,58.0,56.0,93,81,65,30.16,29.90,8,2,15,0.00
2013-7-15,81.8,70.7,60.8,67.0,60.8,52.0,95,73,50,30.14,29.91,6,1,10,0.00
2013-7-16,88.1,76.4,67.0,57.0,51.3,45.0,61,43,27,30.03,29.93,5,1,11,0.00
2013-7-17,88.1,76.9,65.9,61.0,56.3,53.0,67,50,33,30.03,29.90,5,1,11,0.00
2013-7-18,89.1,76.2,62.2,69.0,57.4,52.0,95,55,34,29.94,29.81,6,1,14,1.62
2013-7-19,84.4,71.9,59.0,63.0,57.4,51.0,92,63,36,30.02,29.80,8,1,8,0.15
2013-7-20,79.6,68.7,61.2,67.0,61.4,56.0,92,78,55,29.89,29.76,5,1,9,0.28
2013-7-21,88.4,73.3,60.2,67.0,59.0,50.0,89,63,38,29.86,29.66,5,1,12,0.04
2013-7-22,83.0,71.6,62.0,58.0,55.1,50.0,82,58,35,29.85,29.74,6,1,10,0.04
2013-7-23,77.6,66.9,57.9,64.0,59.2,54.0,89,77,57,30.01,29.80,4,0,8,0.22
2013-7-24,82.5,71.2,62.2,61.0,55.9,52.0,84,60,38,30.06,29.91,4,1,8,0.05
2013-7-25,75.9,66.2,55.2,59.0,54.1,49.0,92,67,45,30.15,29.84,10,2,22,0.23
2013-7-26,68.7,58.9,49.1,52.0,48.5,45.0,93,70,53,30.25,30.15,4,1,9,0.13
2013-7-27,69.0,58.6,48.1,54.0,48.5,43.0,83,70,55,30.22,29.99,8,0,9,0.00
2013-7-28,71.2,62.0,53.1,60.0,55.7,50.0,90,80,64,29.98,29.85,4,0,8,0.00
2013-7-29,77.0,65.9,56.3,62.0,55.8,53.0,92,71,47,30.04,29.84,4,1,9,0.07
2013-7-30,83.6,69.1,60.2,64.0,57.8,52.0,92,69,34,30.10,29.94,6,1,25,0.00
2013-7-31,79.4,69.6,58.7,58.0,51.9,45.0,87,54,42,30.16,30.05,9,1,16,0.00
2013-8-1,79.0,70.1,60.6,59.0,54.5,49.0,81,59,43,30.07,29.82,5,1,8,0.00
2013-8-2,74.1,63.2,54.1,60.0,55.5,52.0,93,77,52,30.05,29.78,7,1,8,0.00
2013-8-3,75.4,66.1,58.3,62.0,59.3,56.0,95,80,60,30.10,29.98,4,1,11,0.38
2013-8-4,81.8,70.6,61.8,65.0,62.0,60.0,95,76,52,30.01,29.85,4,0,8,0.00
2013-8-5,80.0,67.4,57.6,65.0,59.4,53.0,91,76,57,29.95,29.79,7,2,18,0.55
2013-8-6,76.9,67.2,58.1,57.0,52.8,48.0,94,62,41,29.97,29.78,7,1,12,0.26
2013-8-7,79.2,67.1,57.6,60.0,53.8,50.0,87,64,45,29.97,29.85,7,1,9,0.03
2013-8-8,74.4,65.3,55.7,59.0,54.8,47.0,89,70,54,30.05,29.91,8,1,10,0.00
2013-8-9,75.0,63.5,56.3,60.0,54.7,48.0,92,74,52,30.14,30.03,5,1,14,0.17
2013-8-10,75.7,66.6,58.1,62.0,58.7,54.0,92,77,60,30.12,29.96,3,0,7,0.00
2013-8-11,74.2,63.3,59.3,63.0,59.7,57.0,94,88,67,30.06,29.99,4,0,11,0.06
2013-8-12,77.8,66.5,58.0,63.0,57.7,50.0,94,74,56,30.08,30.02,3,0,6,0.00
2013-8-13,73.9,64.0,56.6,62.0,58.5,53.0,93,83,64,30.11,30.02,5,1,13,0.05
2013-8-14,73.1,63.4,55.7,62.0,55.3,49.0,91,76,51,30.08,30.00,2,0,4,0.01
2013-8-15,74.5,64.2,55.8,62.0,56.7,49.0,92,78,61,30.07,29.96,11,1,14,0.01
2013-8-16,82.0,69.8,57.0,64.0,58.9,54.0,92,70,48,30.06,29.96,4,0,9,0.00
2013-8-17,89.0,76.4,65.9,65.0,56.7,48.0,69,52,27,29.96,29.79,4,0,6,0.00
2013-8-18,82.3,72.9,65.8,66.0,57.9,50.0,88,60,42,29.89,29.80,7,1,14,0.05
2013-8-19,86.3,76.2,66.2,60.0,54.5,48.0,68,49,33,29.92,29.77,4,1,8,0.00
2013-8-20,92.8,78.8,69.3,61.0,53.4,47.0,60,42,26,29.81,29.73,5,1,10,0.00
2013-8-21,77.8,70.8,61.1,59.0,52.6,47.0,75,54,39,30.00,29.81,4,1,8,0.00
2013-8-22,79.6,69.2,59.6,61.0,57.2,50.0,83,67,47,30.10,29.97,4,0,8,0.00
2013-8-23,84.8,72.7,62.2,67.0,61.5,58.0,88,70,43,29.96,29.72,5,1,9,0.00
2013-8-24,90.0,79.7,69.9,59.0,52.1,50.0,67,40,27,29.79,29.69,5,2,10,0.00
2013-8-25,90.3,78.5,68.8,62.0,56.7,50.0,68,49,31,29.87,29.79,4,1,8,0.00
2013-8-26,90.9,80.0,71.4,59.0,54.2,46.0,60,43,22,29.82,29.75,5,1,10,0.00
2013-8-27,95.0,81.6,69.5,63.0,53.1,49.0,65,40,21,29.82,29.73,6,1,10,0.00
2013-8-28,84.9,74.2,64.1,69.0,62.2,48.0,88,68,37,29.88,29.79,7,1,10,0.00
2013-8-29,88.9,80.7,71.3,57.0,50.9,44.0,52,36,27,29.92,29.82,7,1,12,0.00
2013-8-30,87.2,74.9,66.8,65.0,58.9,53.0,74,58,41,29.94,29.80,4,0,13,0.00
2013-8-31,84.8,73.4,63.2,58.0,49.1,39.0,65,44,29,29.99,29.77,13,2,18,0.00
2013-9-1,80.2,67.5,56.5,48.0,43.0,37.0,56,42,32,30.05,29.99,5,1,6,0.00
2013-9-2,89.0,75.1,59.0,54.0,49.3,44.0,61,42,25,30.02,29.83,4,1,8,0.00
2013-9-3,87.3,78.4,69.0,60.0,55.9,53.0,69,47,32,29.89,29.78,4,1,10,0.00
2013-9-4,86.6,75.6,64.7,65.0,59.3,55.0,81,58,42,29.99,29.87,5,1,8,0.06
2013-9-5,89.4,76.7,64.9,63.0,60.5,57.0,87,60,38,30.00,29.85,6,1,10,0.00
2013-9-6,90.7,79.7,72.9,63.0,55.9,52.0,60,45,29,29.85,29.79,6,1,9,0.00
2013-9-7,91.1,78.3,68.3,62.0,58.2,55.0,73,52,31,29.89,29.78,7,1,10,0.00
2013-9-8,80.3,67.7,60.7,65.0,61.2,58.0,96,81,57,29.84,29.70,6,1,12,0.31
2013-9-9,71.3,63.8,59.6,61.0,57.5,54.0,91,80,61,29.93,29.67,5,1,12,0.27
2013-9-10,73.0,63.8,59.3,55.0,51.7,47.0,82,65,53,30.11,29.93,4,1,11,0.00
2013-9-11,78.6,66.7,57.7,55.0,48.1,41.0,79,54,32,30.19,30.11,5,0,7,0.00
2013-9-12,74.7,63.8,54.5,52.0,47.7,41.0,73,57,42,30.27,30.17,5,1,8,0.00
2013-9-13,64.5,58.1,53.7,56.0,53.0,46.0,95,83,67,30.16,29.86,6,1,9,0.00
2013-9-14,75.4,64.1,56.2,59.0,56.1,53.0,96,77,51,29.98,29.79,9,2,18,0.00
2013-9-15,62.5,54.9,50.9,56.0,51.2,48.0,95,88,64,30.27,29.99,9,1,13,0.03
2013-9-16,61.6,56.1,50.1,55.0,51.6,47.0,93,85,78,30.25,29.90,5,1,10,0.00
2013-9-17,87.3,73.6,55.9,55.0,49.2,41.0,90,45,20,29.90,29.55,7,1,7,0.00
2013-9-18,83.0,71.2,57.4,50.0,45.6,41.0,62,42,24,29.73,29.50,9,2,17,0.00
2013-9-19,62.5,54.2,46.0,42.0,37.1,33.0,66,54,35,30.16,29.73,9,3,17,0.00
2013-9-20,68.8,54.9,43.5,39.0,36.2,34.0,71,52,33,30.18,29.99,3,0,7,0.00
2013-9-21,84.5,68.9,48.3,39.0,34.2,30.0,58,30,15,29.99,29.58,5,0,12,0.00
2013-9-22,86.1,73.1,56.3,54.0,41.0,31.0,90,34,22,29.58,29.35,7,2,12,0.05
2013-9-23,61.5,54.6,50.0,53.0,48.2,42.0,92,80,66,29.96,29.34,10,2,24,0.20
2013-9-24,71.3,60.1,50.1,43.0,39.2,33.0,66,47,31,30.06,29.75,6,1,13,0.00
2013-9-25,76.5,63.5,55.5,47.0,42.5,33.0,71,48,32,29.75,29.40,6,1,11,0.00
2013-9-26,61.1,54.2,44.9,48.0,42.9,35.0,86,66,52,29.88,29.48,10,2,16,0.00
2013-9-27,44.6,40.8,38.7,37.0,36.1,35.0,91,84,70,30.03,29.85,9,2,17,0.02
2013-9-28,62.0,50.3,37.3,37.0,32.1,29.0,90,52,30,30.09,29.98,9,3,15,0.00
2013-9-29,72.5,61.5,50.0,36.0,34.0,32.0,57,37,23,29.97,29.65,10,2,18,0.00
2013-9-30,78.8,64.4,52.7,44.0,35.7,29.0,66,37,21,29.75,29.46,12,4,19,0.00
2013-10-1,67.9,56.9,47.7,39.0,28.9,19.0,48,35,26,29.98,29.77,7,1,16,0.00
2013-10-2,63.8,54.5,48.3,39.0,33.6,28.0,59,46,38,30.00,29.78,16,2,20,0.00
2013-10-3,48.1,42.9,32.9,40.0,37.5,31.0,94,82,61,30.16,29.94,7,2,17,0.59
2013-10-4,32.8,32.1,31.6,31.0,31.0,30.0,95,95,94,30.21,30.12,6,1,17,0.82
2013-10-11,45.8,41.9,38.8,37.0,30.0,-99.9,86,66,59,29.98,0.00,16,-11,30,0.01
2013-10-12,50.1,41.5,32.3,34.0,28.8,24.0,87,62,39,30.35,29.98,8,1,13,0.03
2013-10-13,54.8,43.8,33.4,43.0,37.5,30.0,90,79,61,30.34,30.07,5,0,8,0.03
2013-10-14,44.9,38.2,31.7,41.0,35.3,28.0,95,89,83,30.22,29.91,16,5,25,0.25
2013-10-15,38.3,34.1,31.0,28.0,27.0,24.0,88,76,63,30.42,30.22,11,4,22,0.25
2013-10-16,51.8,40.5,30.0,28.0,22.0,11.0,72,50,26,30.31,30.08,6,1,13,0.00
2013-10-17,40.3,35.2,32.1,31.0,23.9,17.0,79,65,44,30.24,30.09,10,3,17,0.00
2013-10-18,40.4,35.7,31.4,29.0,23.5,20.0,81,62,46,30.29,30.08,7,3,16,0.00
2013-10-19,56.8,48.7,39.9,31.0,28.8,26.0,59,47,34,30.07,29.85,8,4,15,0.00
2013-10-20,47.7,41.5,36.4,35.0,30.9,28.0,81,67,53,30.13,29.84,12,4,19,0.00
2013-10-21,49.9,44.0,34.8,38.0,32.7,26.0,85,65,56,30.14,30.04,18,4,22,0.00
2013-10-22,48.4,44.4,40.0,40.0,36.9,34.0,84,75,61,30.17,30.08,8,1,18,0.00
2013-10-23,50.9,44.6,35.5,39.0,36.1,32.0,88,73,54,30.34,30.08,7,2,16,0.00
2013-10-24,46.4,37.9,32.6,37.0,33.9,30.0,92,85,69,30.44,30.34,3,0,5,0.00
2013-10-25,63.9,52.5,37.2,40.0,36.5,31.0,89,57,34,30.33,30.12,6,1,12,0.00
2013-10-26,57.2,48.2,38.6,36.0,29.7,24.0,60,50,34,30.29,30.05,4,0,10,0.00
2013-10-27,60.4,50.4,33.3,37.0,30.4,24.0,84,49,34,30.15,29.84,5,1,8,0.00
2013-10-28,32.4,25.1,23.2,28.0,22.9,21.0,93,91,83,30.46,30.16,4,1,7,0.09
2013-10-29,31.1,27.2,23.9,29.0,25.1,22.0,93,91,90,30.45,30.16,2,0,4,0.10
2013-10-30,43.5,34.7,28.2,38.0,32.5,26.0,95,92,81,30.15,29.88,4,0,7,0.03
2013-10-31,48.6,41.9,36.0,33.0,28.6,24.0,82,60,46,29.89,29.77,10,3,20,0.03
2013-11-1,45.2,40.6,36.2,34.0,24.9,19.0,84,55,38,30.24,29.82,20,6,35,0.00
2013-11-2,53.9,44.3,37.2,31.0,26.2,20.0,59,50,38,30.25,29.66,5,1,11,0.00
2013-11-3,56.5,46.4,37.7,32.0,26.9,20.0,69,49,28,29.86,29.56,12,2,15,0.00
2013-11-4,39.0,33.5,28.7,28.0,23.9,17.0,90,69,42,30.25,29.87,8,1,10,0.04
2013-11-5,28.8,26.0,19.5,26.0,22.5,14.0,91,86,74,30.32,30.21,1,0,4,0.04
2013-11-6,41.5,33.6,20.8,31.0,22.3,15.0,87,64,52,30.49,30.29,10,2,17,0.04
2013-11-7,44.4,38.0,31.4,33.0,26.8,21.0,72,64,52,30.49,29.91,4,1,7,0.00
2013-11-8,51.4,45.8,41.7,33.0,25.4,20.0,65,46,34,30.04,29.69,16,5,27,0.00
2013-11-9,44.5,38.7,29.8,28.0,24.9,23.0,79,59,45,30.40,30.04,6,1,11,0.00
2013-11-10,56.8,42.7,27.2,35.0,29.1,24.0,91,61,34,30.36,30.20,7,1,11,0.00
2013-11-11,26.8,20.5,16.4,25.0,17.8,14.0,92,89,85,30.90,30.30,6,1,9,0.02
2013-11-12,57.8,42.8,23.7,30.0,19.3,2.0,90,43,20,30.88,30.29,4,0,11,0.02
2013-11-13,59.0,53.3,41.4,38.0,27.2,16.0,87,39,21,30.28,29.99,5,1,11,0.03
2013-11-14,49.2,42.0,36.2,38.0,28.1,22.0,88,60,37,30.04,29.85,7,2,13,0.04
2013-11-15,48.2,40.5,35.2,33.0,28.1,24.0,76,62,41,29.83,29.43,6,0,12,0.00
2013-11-16,44.7,37.6,31.8,29.0,25.0,20.0,83,62,43,29.48,29.36,7,1,11,0.00
2013-11-17,38.8,34.8,30.3,29.0,19.0,12.0,86,54,34,30.19,29.48,16,3,20,0.00
2013-11-18,50.1,38.8,27.8,25.0,18.6,13.0,57,45,36,30.22,29.96,3,0,5,0.00
2013-11-19,57.5,52.6,44.9,28.0,23.6,20.0,44,33,26,29.96,29.58,16,4,18,0.00
2013-11-20,47.2,32.4,12.8,30.0,21.3,7.0,92,66,40,30.38,29.70,10,2,19,0.00
2013-11-21,16.5,12.7,9.2,8.0,5.7,-4.0,84,74,45,30.91,30.38,4,0,11,0.02
2013-11-22,36.4,27.0,13.6,9.0,-1.9,-18.0,65,31,13,30.87,30.79,7,1,12,0.00
2013-11-23,35.7,28.5,14.7,19.0,12.3,7.0,77,52,36,30.84,30.50,3,0,5,0.00
2013-11-24,54.1,41.3,30.4,29.0,20.3,9.0,61,44,29,30.49,30.05,8,1,16,0.00
2013-11-25,41.5,35.4,31.4,25.0,19.7,15.0,65,53,43,30.43,30.17,8,2,15,0.00
2013-11-26,31.6,27.2,19.9,21.0,17.8,10.0,87,69,42,30.58,30.39,6,1,13,0.00
2013-11-27,55.9,42.6,29.7,23.0,18.8,14.0,68,41,22,30.38,30.11,12,2,17,0.00
2013-11-28,36.6,29.3,23.6,26.0,21.7,13.0,86,74,50,30.36,30.24,3,0,5,0.00
2013-11-29,57.3,46.9,35.1,28.0,22.3,19.0,67,39,23,30.24,30.11,5,1,10,0.00
2013-11-30,49.3,42.5,35.3,27.0,23.7,20.0,65,48,40,30.20,30.10,4,0,7,0.00
2013-12-1,49.9,43.6,38.8,28.0,26.7,25.0,63,52,42,30.17,29.73,4,1,7,0.00
2013-12-2,46.4,42.1,30.4,34.0,30.0,26.0,92,64,47,29.73,29.56,12,1,12,0.03
2013-12-3,29.7,16.3,9.9,27.0,13.6,6.0,92,89,83,30.12,29.61,6,1,13,0.04
2013-12-4,9.8,5.5,-1.0,5.0,-2.0,-9.0,83,71,60,30.46,30.07,13,3,21,0.00
2013-12-5,3.2,-2.9,-8.5,-4.0,-8.6,-13.0,82,77,69,30.75,30.46,3,0,5,0.00
2013-12-6,-2.0,-7.4,-11.2,-7.0,-12.5,-17.0,81,78,76,30.94,30.74,3,0,4,0.00
2013-12-7,-2.0,-9.2,-14.1,-7.0,-14.4,-20.0,82,78,74,30.92,30.53,1,0,3,0.00
2013-12-8,6.8,1.6,-2.6,1.0,-4.4,-8.0,82,76,65,30.52,30.34,3,0,9,0.00
2013-12-9,23.7,13.5,-0.2,13.0,0.9,-8.0,72,58,36,30.48,30.18,12,4,24,0.00
2013-12-10,30.0,19.4,1.6,19.0,9.5,-3.0,84,67,50,30.56,30.14,12,2,17,0.00
2013-12-11,32.3,21.2,0.5,13.0,7.0,-4.0,89,57,35,30.59,30.49,9,1,14,0.00
2013-12-12,43.6,34.6,24.9,21.0,14.4,7.0,57,44,35,30.48,30.01,3,0,5,0.00
2013-12-13,39.3,34.8,29.1,24.0,20.6,17.0,75,58,42,30.23,29.96,5,1,7,0.00
2013-12-14,39.9,36.4,31.3,25.0,22.1,20.0,70,57,49,30.31,30.15,8,4,16,0.00
2013-12-15,49.6,44.9,39.4,25.0,22.5,19.0,56,42,33,30.15,29.97,9,3,18,0.00
2013-12-16,46.4,41.0,36.7,29.0,22.6,19.0,71,49,36,30.26,29.98,11,3,20,0.00
2013-12-17,53.1,40.0,24.8,28.0,20.4,17.0,81,49,25,30.36,29.93,6,1,11,0.00
2013-12-18,56.1,45.5,26.9,24.0,20.7,18.0,85,41,25,29.92,29.74,6,1,9,0.00
2013-12-19,26.8,12.6,0.9,24.0,9.5,-3.0,92,87,82,30.28,29.84,4,1,11,0.20
2013-12-20,27.3,15.5,1.6,23.0,11.1,-3.0,89,83,72,30.30,29.95,2,0,4,0.20
2013-12-21,24.7,18.1,14.9,19.0,12.6,9.0,88,79,67,30.18,29.90,3,0,5,0.00
2013-12-22,15.4,8.8,-1.6,12.0,5.1,-6.0,89,85,77,30.65,30.18,3,0,7,0.00
2013-12-23,38.3,14.5,-1.8,29.0,8.9,-6.0,85,79,68,30.71,30.28,2,0,4,0.00
2013-12-24,40.8,35.0,30.3,31.0,24.6,17.0,88,67,49,30.33,30.09,9,3,19,0.00
2013-12-25,40.8,32.4,27.6,17.0,14.3,10.0,62,49,28,30.49,30.20,9,3,16,0.00
2013-12-26,47.0,40.9,36.0,26.0,21.0,9.0,62,46,28,30.31,30.18,11,2,14,0.00
2013-12-27,55.2,47.9,41.7,31.0,26.3,20.0,55,44,30,30.22,29.88,6,1,8,0.00
2013-12-28,53.2,31.6,7.5,25.0,13.2,0.0,75,50,26,30.44,29.77,16,4,26,0.00
2013-12-29,30.1,18.0,4.9,21.0,9.0,0.0,81,68,57,30.50,30.16,6,0,7,0.00
2013-12-30,36.4,32.2,25.9,25.0,22.2,19.0,86,67,50,30.29,30.09,14,4,25,0.00
2013-12-31,40.9,32.9,18.9,29.0,22.3,15.0,89,67,43,30.11,29.99,8,0,12,0.00
2014-1-1,30.5,25.5,18.8,23.0,18.5,14.0,91,75,53,30.47,30.12,11,1,17,0.00
2014-1-2,37.9,30.7,22.1,24.0,18.9,16.0,78,63,43,30.42,30.01,6,1,8,0.00